Weather History for KLRU - June, 2012

Change the Weather History Date:

Wednesday, June 6, 2012

  Actual Average Record
Temperature  
Mean Temperature 78 °F -  
Max Temperature 95 °F 90 °F 102 °F (2006)
Min Temperature 60 °F 61 °F 53 °F (2008)
Cooling Degree Days 12    
Growing Degree Days 28 (Base 50)    
Moisture  
Dew Point 16 °F    
Average Humidity 11    
Maximum Humidity 20    
Minimum Humidity 4    
Precipitation  
Precipitation 0.00 in - - ()
Sea Level Pressure  
Sea Level Pressure 29.91 in    
Wind  
Wind Speed 7 mph (West)    
Max Wind Speed 15 mph    
Max Gust Speed 24 mph    
Visibility 10 miles    
Events      
Averages and records for this station are not official NWS values.
T = Trace of Precipitation, MM = Missing Value Source: NWS Daily Summary

Daily Weather History Graph

Daily Weather History Graph

Search for Another Location

Airport or City:

Trip Planner

Search our weather history database for the weather conditions in past years. The results will help you decide how hot, cold, wet, or windy it might be!

Date:

Astronomy

Jun. 06, 2012 Rise Set
Actual Time 6:00 AM MDT 8:12 PM MDT
Civil Twilight 5:32 AM MDT 8:40 PM MDT
Nautical Twilight 4:58 AM MDT 9:15 PM MDT
Astronomical Twilight 4:20 AM MDT 9:52 PM MDT
Moon 10:31 PM MDT (6/6) 8:21 AM MDT (6/6)
Length of Visible Light 15h 08m
Length of Day
14h 11m
Waning Gibbous, 93% of the Moon is Illuminated
Jun 6
Waning Gibbous
Jun 11
Last Quarter
Jun 19
New
Jun 26
First Quarter
Jul 3
Full

Hourly Weather History & Observations

Time (MDT) Temp. Dew Point Humidity Pressure Visibility Wind Dir Wind Speed Gust Speed Precip Events Conditions
12:15 AM 73.4 °F 17.6 °F 12% 29.91 in 10.0 mi West 8.1 mph - N/A   Clear
12:35 AM 69.8 °F 15.8 °F 13% 29.91 in 10.0 mi West 9.2 mph - N/A   Clear
12:55 AM 69.8 °F 14.0 °F 12% 29.90 in 10.0 mi WNW 6.9 mph - N/A   Clear
1:15 AM 66.2 °F 14.0 °F 13% 29.90 in 10.0 mi West 9.2 mph - N/A   Clear
1:35 AM 64.4 °F 14.0 °F 14% 29.91 in 10.0 mi WNW 4.6 mph - N/A   Clear
1:55 AM 60.8 °F 14.0 °F 16% 29.91 in 10.0 mi NW 4.6 mph - N/A   Clear
2:15 AM 62.6 °F 15.8 °F 16% 29.90 in 10.0 mi NW 4.6 mph - N/A   Clear
2:35 AM 60.8 °F 15.8 °F 17% 29.91 in 10.0 mi NW 5.8 mph - N/A   Clear
2:55 AM 64.4 °F 15.8 °F 15% 29.91 in 10.0 mi West 6.9 mph - N/A   Clear
3:15 AM 64.4 °F 14.0 °F 14% 29.91 in 10.0 mi West 11.5 mph - N/A   Clear
3:35 AM 62.6 °F 15.8 °F 16% 29.90 in 10.0 mi West 11.5 mph - N/A   Clear
3:55 AM 62.6 °F 17.6 °F 18% 29.90 in 10.0 mi West 10.4 mph - N/A   Clear
4:15 AM 60.8 °F 17.6 °F 19% 29.91 in 10.0 mi West 9.2 mph - N/A   Clear
4:35 AM 62.6 °F 17.6 °F 18% 29.91 in 10.0 mi West 10.4 mph - N/A   Clear
4:55 AM 64.4 °F 17.6 °F 16% 29.91 in 10.0 mi West 9.2 mph - N/A   Clear
5:15 AM 62.6 °F 19.4 °F 19% 29.92 in 10.0 mi West 10.4 mph - N/A   Clear
5:35 AM 64.4 °F 19.4 °F 18% 29.92 in 10.0 mi West 9.2 mph - N/A   Clear
5:55 AM 60.8 °F 19.4 °F 20% 29.92 in 10.0 mi West 10.4 mph - N/A   Clear
6:15 AM 60.8 °F 19.4 °F 20% 29.93 in 10.0 mi West 10.4 mph - N/A   Clear
6:35 AM 60.8 °F 19.4 °F 20% 29.93 in 10.0 mi WNW 5.8 mph - N/A   Clear
6:55 AM 64.4 °F 21.2 °F 19% 29.94 in 10.0 mi WNW 6.9 mph - N/A   Clear
7:15 AM 69.8 °F 21.2 °F 16% 29.95 in 10.0 mi Calm Calm - N/A   Clear
7:35 AM 69.8 °F 23.0 °F 17% 29.95 in 10.0 mi Calm Calm - N/A   Clear
7:55 AM 73.4 °F 23.0 °F 15% 29.95 in 10.0 mi Calm Calm - N/A   Clear
8:15 AM 73.4 °F 21.2 °F 14% 29.96 in 10.0 mi ENE 3.5 mph - N/A   Clear
8:35 AM 75.2 °F 21.2 °F 13% 29.95 in 10.0 mi NNE 3.5 mph - N/A   Clear
8:55 AM 78.8 °F 21.2 °F 12% 29.95 in 10.0 mi NNE 5.8 mph - N/A   Clear
9:15 AM 80.6 °F 21.2 °F 11% 29.96 in 10.0 mi ENE 6.9 mph - N/A   Clear
9:35 AM 80.6 °F 21.2 °F 11% 29.96 in 10.0 mi East 3.5 mph - N/A   Clear
9:55 AM 82.4 °F 24.8 °F 12% 29.96 in 10.0 mi East 4.6 mph - N/A   Clear
10:15 AM 82.4 °F 24.8 °F 12% 29.95 in 10.0 mi ESE 3.5 mph - N/A   Clear
10:35 AM 86.0 °F 24.8 °F 11% 29.95 in 10.0 mi ENE 4.6 mph - N/A   Clear
10:55 AM 86.0 °F 23.0 °F 10% 29.95 in 10.0 mi SE 6.9 mph - N/A   Clear
11:15 AM 86.0 °F 23.0 °F 10% 29.95 in 10.0 mi SE 5.8 mph - N/A   Clear
11:35 AM 86.0 °F 23.0 °F 10% 29.95 in 10.0 mi WSW 6.9 mph - N/A   Clear
11:55 AM 89.6 °F 19.4 °F 8% 29.95 in 10.0 mi West 11.5 mph - N/A   Clear
12:15 PM 89.6 °F 14.0 °F 6% 29.94 in 10.0 mi Calm Calm - N/A   Clear
12:35 PM 89.6 °F 17.6 °F 7% 29.94 in 10.0 mi West 15.0 mph 19.6 mph N/A   Clear
12:55 PM 91.4 °F 17.6 °F 7% 29.93 in 10.0 mi West 11.5 mph 18.4 mph N/A   Clear
1:15 PM 89.6 °F 12.2 °F 6% 29.92 in 10.0 mi West 13.8 mph 19.6 mph N/A   Clear
1:35 PM 91.4 °F 15.8 °F 6% 29.92 in 10.0 mi West 15.0 mph 21.9 mph N/A   Clear
1:55 PM 91.4 °F 15.8 °F 6% 29.91 in 10.0 mi West 4.6 mph 21.9 mph N/A   Clear
2:15 PM 91.4 °F 17.6 °F 7% 29.91 in 10.0 mi WSW 9.2 mph - N/A   Clear
2:35 PM 93.2 °F 15.8 °F 6% 29.90 in 10.0 mi West 5.8 mph - N/A   Clear
2:55 PM 95.0 °F 10.4 °F 4% 29.90 in 10.0 mi WSW 9.2 mph 23.0 mph N/A   Clear
3:15 PM 93.2 °F 12.2 °F 5% 29.88 in 10.0 mi SSW 6.9 mph - N/A   Clear
3:35 PM 95.0 °F 8.6 °F 4% 29.88 in 10.0 mi West 9.2 mph 20.7 mph N/A   Clear
3:55 PM 95.0 °F 10.4 °F 4% 29.88 in 10.0 mi WSW 5.8 mph 24.2 mph N/A   Clear
4:15 PM 95.0 °F 6.8 °F 4% 29.88 in 10.0 mi SW 10.4 mph 17.3 mph N/A   Clear
4:35 PM 95.0 °F 10.4 °F 4% 29.87 in 10.0 mi SW 4.6 mph - N/A   Clear
4:55 PM 95.0 °F 10.4 °F 4% 29.87 in 10.0 mi West 13.8 mph 19.6 mph N/A   Clear
5:15 PM 95.0 °F 12.2 °F 5% 29.86 in 10.0 mi WSW 5.8 mph 10.4 mph N/A   Clear
5:35 PM 95.0 °F 10.4 °F 4% 29.86 in 10.0 mi SW 6.9 mph 21.9 mph N/A   Clear
5:55 PM 95.0 °F 10.4 °F 4% 29.86 in 10.0 mi West 11.5 mph 18.4 mph N/A   Clear
6:15 PM 95.0 °F 12.2 °F 5% 29.86 in 10.0 mi West 11.5 mph 20.7 mph N/A   Clear
6:35 PM 93.2 °F 14.0 °F 5% 29.85 in 10.0 mi WSW 5.8 mph - N/A   Clear
6:55 PM 91.4 °F 14.0 °F 6% 29.85 in 10.0 mi West 6.9 mph - N/A   Clear
7:15 PM 91.4 °F 14.0 °F 6% 29.86 in 10.0 mi WSW 5.8 mph - N/A   Clear
7:35 PM 91.4 °F 14.0 °F 6% 29.86 in 10.0 mi West 8.1 mph - N/A   Clear
7:55 PM 89.6 °F 15.8 °F 7% 29.86 in 10.0 mi West 5.8 mph - N/A   Clear
8:15 PM 86.0 °F 17.6 °F 8% 29.86 in 10.0 mi West 5.8 mph - N/A   Clear
8:35 PM 84.2 °F 15.8 °F 8% 29.87 in 10.0 mi West 8.1 mph - N/A   Clear
8:55 PM 78.8 °F 15.8 °F 9% 29.87 in 10.0 mi WNW 8.1 mph - N/A   Clear
9:15 PM 77.0 °F 15.8 °F 10% 29.88 in 10.0 mi WNW 5.8 mph - N/A   Clear
9:35 PM 73.4 °F 14.0 °F 10% 29.88 in 10.0 mi WNW 6.9 mph - N/A   Clear
9:55 PM 71.6 °F 14.0 °F 11% 29.90 in 10.0 mi NW 6.9 mph - N/A   Clear
10:35 PM 69.8 °F 14.0 °F 12% 29.90 in 10.0 mi NW 6.9 mph - N/A   Clear
10:55 PM 69.8 °F 14.0 °F 12% 29.90 in 10.0 mi NW 4.6 mph - N/A   Clear
11:15 PM 69.8 °F 14.0 °F 12% 29.90 in 10.0 mi NW 4.6 mph - N/A   Clear
11:35 PM 68.0 °F 14.0 °F 12% 29.90 in 10.0 mi WNW 3.5 mph - N/A   Clear
11:55 PM 68.0 °F 14.0 °F 12% 29.91 in 10.0 mi West 8.1 mph - N/A   Clear